{"data":{"norad_id":49962,"intl_designator":"2021-122B","name":"SHIJIAN-6 05B (SJ-6 05B)","alt_names":[],"object_type":"PAYLOAD","status":"ACTIVE","operator":null,"country":"PRC","launch_date":"2021-12-10","launch_site_code":"JSC","launch_vehicle":null,"mission":null,"orbit_class":"UNKNOWN","rcs_meters":null,"size_class":null,"mass_kg":null,"dimensions":null,"purposes":[],"wikipedia_slug":null,"has_3d_model":false,"image_url":null,"decayed_at":null,"tle_current":{"epoch":"2026-09-20T17:34:47.866944Z","epoch_age_seconds":89684,"freshness":"FRESH","line1":"1 49962U 21122B   26263.73249846  .00001795  00000+0  10710-3 0  9993","line2":"2 49962  97.3906 241.2230 0003157  80.9542 279.2046 15.12373300264180","mean_motion":15.123733,"eccentricity":0.0003157,"inclination_deg":97.3906,"raan_deg":241.223,"arg_perigee_deg":80.9542,"mean_anomaly_deg":279.2046,"bstar":0.0001071,"rev_number":26418,"period_min":95.214587562475,"perigee_km":526.78396402152,"apogee_km":531.14510793133,"semimajor_km":6907.1015359764,"source":"CELESTRAK","updated_at":"2026-09-21T09:00:08.142101Z"}}}